M I D A S
Marine Information and Data Acquisition System
Tripno 1708 of the Zeeleeuw from 2009-06-11 07:40:00 to 2009-06-12 14:09:40
Back to CruiseResearch ActivitiesStationsMapUnderway DataData graphs

EquipmentUnitsComments
TimeDGPSUTC
LatitudeDGPSDM.mWGS84
LongitudeDGPSDM.mWGS84
SpeedMeteo Stationm/sRelative wind speed
DirectionMeteo StationdegRelative wind direction
TemperatureMeteo Stationdeg CelciusAir temperature
PressureMeteo StationPaAtmospheric pressure
HumidityMeteo Station%Relative humidity
Missing or incorrect values are displayed as -999
Metereological data collected by the RV Zeeleeuw from 2009-06-11 07:40:00 to 2009-06-12 14:09:40
Time Latitude Longitude Speed Direction Temperature Pressure Humidity
2009-06-11 07:42 51°13.638 2°55.973 -999 -999 -999 -999 -999
2009-06-11 07:44 51°13.695 2°55.801 -999 -999 -999 -999 -999
2009-06-11 07:46 51°13.714 2°55.727 -999 -999 -999 -999 -999
2009-06-11 07:48 51°13.779 2°55.678 -999 -999 -999 -999 -999
2009-06-11 07:50 51°13.998 2°55.508 -999 -999 -999 -999 -999
2009-06-11 07:52 51°14.239 2°55.289 -999 -999 -999 -999 -999
2009-06-11 07:54 51°14.423 2°54.915 -999 -999 -999 -999 -999
2009-06-11 07:56 51°14.358 2°54.366 -999 -999 -999 -999 -999
2009-06-11 07:58 51°14.208 2°53.743 -999 -999 -999 -999 -999
2009-06-11 08:00 51°14.03 2°53.138 -999 -999 -999 -999 -999
2009-06-11 08:02 51°13.851 2°52.544 -999 -999 -999 -999 -999
2009-06-11 08:04 51°13.66 2°51.954 -999 -999 -999 -999 -999
2009-06-11 08:06 51°13.497 2°51.476 -999 -999 -999 -999 -999
2009-06-11 08:08 51°13.39 2°51.331 -999 -999 -999 -999 -999
2009-06-11 08:10 51°13.284 2°51.232 -999 -999 -999 -999 -999
2009-06-11 08:12 51°13.196 2°51.047 -999 -999 -999 -999 -999
2009-06-11 08:14 51°13.131 2°50.885 -999 -999 -999 -999 -999
2009-06-11 08:16 51°13.073 2°50.751 -999 -999 -999 -999 -999
2009-06-11 08:18 51°13.009 2°50.598 -999 -999 -999 -999 -999
2009-06-11 08:20 51°12.944 2°50.445 -999 -999 -999 -999 -999
2009-06-11 08:22 51°12.877 2°50.298 -999 -999 -999 -999 -999
2009-06-11 08:24 51°12.811 2°50.153 -999 -999 -999 -999 -999
2009-06-11 08:26 51°12.747 2°50.007 -999 -999 -999 -999 -999
2009-06-11 08:28 51°12.687 2°49.857 -999 -999 -999 -999 -999
2009-06-11 08:30 51°12.623 2°49.701 -999 -999 -999 -999 -999
2009-06-11 08:32 51°12.559 2°49.545 -999 -999 -999 -999 -999
2009-06-11 08:34 51°12.496 2°49.409 -999 -999 -999 -999 -999
2009-06-11 08:36 51°12.435 2°49.282 -999 -999 -999 -999 -999
2009-06-11 08:38 51°12.366 2°49.166 -999 -999 -999 -999 -999
2009-06-11 08:40 51°12.272 2°49.072 -999 -999 -999 -999 -999
2009-06-11 08:42 51°12.194 2°48.969 -999 -999 -999 -999 -999
2009-06-11 08:44 51°12.142 2°48.874 -999 -999 -999 -999 -999
2009-06-11 08:46 51°12.187 2°48.802 -999 -999 -999 -999 -999
2009-06-11 08:48 51°12.345 2°49.168 -999 -999 -999 -999 -999
2009-06-11 08:50 51°12.53 2°49.634 -999 -999 -999 -999 -999
2009-06-11 08:52 51°12.712 2°50.099 -999 -999 -999 -999 -999
2009-06-11 08:54 51°12.913 2°50.536 -999 -999 -999 -999 -999
2009-06-11 08:56 51°13.126 2°50.958 -999 -999 -999 -999 -999
2009-06-11 08:58 51°13.334 2°51.376 -999 -999 -999 -999 -999
2009-06-11 09:00 51°13.43 2°51.371 -999 -999 -999 -999 -999
2009-06-11 09:02 51°13.438 2°51.333 -999 -999 -999 -999 -999
2009-06-11 09:04 51°13.414 2°51.331 -999 -999 -999 -999 -999
2009-06-11 09:06 51°13.384 2°51.325 -999 -999 -999 -999 -999
2009-06-11 09:08 51°13.354 2°51.316 -999 -999 -999 -999 -999
2009-06-11 09:10 51°13.33 2°51.31 -999 -999 -999 -999 -999
2009-06-11 09:12 51°13.433 2°51.555 -999 -999 -999 -999 -999
2009-06-11 09:14 51°13.594 2°52.014 -999 -999 -999 -999 -999
2009-06-11 09:16 51°13.756 2°52.498 -999 -999 -999 -999 -999
2009-06-11 09:18 51°13.95 2°52.956 -999 -999 -999 -999 -999
2009-06-11 09:20 51°14.152 2°53.399 -999 -999 -999 -999 -999
2009-06-11 09:22 51°14.352 2°53.837 -999 -999 -999 -999 -999
2009-06-11 09:24 51°14.652 2°54.036 -999 -999 -999 -999 -999
2009-06-11 09:26 51°14.983 2°53.874 -999 -999 -999 -999 -999
2009-06-11 09:28 51°15.315 2°53.696 -999 -999 -999 -999 -999
2009-06-11 09:30 51°15.643 2°53.503 -999 -999 -999 -999 -999
2009-06-11 09:32 51°15.975 2°53.298 -999 -999 -999 -999 -999
2009-06-11 09:34 51°16.299 2°53.086 -999 -999 -999 -999 -999
2009-06-11 09:36 51°16.631 2°52.878 -999 -999 -999 -999 -999
2009-06-11 09:38 51°16.956 2°52.676 -999 -999 -999 -999 -999
2009-06-11 09:40 51°17.283 2°52.478 -999 -999 -999 -999 -999
2009-06-11 09:42 51°17.609 2°52.3 -999 -999 -999 -999 -999
2009-06-11 09:44 51°17.938 2°52.117 -999 -999 -999 -999 -999
2009-06-11 09:46 51°18.268 2°51.931 -999 -999 -999 -999 -999
2009-06-11 09:48 51°18.596 2°51.743 -999 -999 -999 -999 -999
2009-06-11 09:50 51°18.927 2°51.548 -999 -999 -999 -999 -999
2009-06-11 09:52 51°19.262 2°51.381 -999 -999 -999 -999 -999
2009-06-11 09:54 51°19.593 2°51.223 -999 -999 -999 -999 -999
2009-06-11 09:56 51°19.926 2°51.067 -999 -999 -999 -999 -999
2009-06-11 09:58 51°20.264 2°50.906 -999 -999 -999 -999 -999
2009-06-11 10:00 51°20.604 2°50.736 -999 -999 -999 -999 -999
2009-06-11 10:02 51°20.939 2°50.565 -999 -999 -999 -999 -999
2009-06-11 10:04 51°21.282 2°50.4 -999 -999 -999 -999 -999
2009-06-11 10:06 51°21.627 2°50.237 -999 -999 -999 -999 -999
2009-06-11 10:08 51°21.965 2°50.073 -999 -999 -999 -999 -999
2009-06-11 10:10 51°22.305 2°49.908 -999 -999 -999 -999 -999
2009-06-11 10:12 51°22.643 2°49.755 -999 -999 -999 -999 -999
2009-06-11 10:14 51°22.978 2°49.599 -999 -999 -999 -999 -999
2009-06-11 10:16 51°23.301 2°49.4 -999 -999 -999 -999 -999
2009-06-11 10:18 51°23.63 2°49.197 -999 -999 -999 -999 -999
2009-06-11 10:20 51°23.962 2°48.979 -999 -999 -999 -999 -999
2009-06-11 10:22 51°24.291 2°48.77 -999 -999 -999 -999 -999
2009-06-11 10:24 51°24.629 2°48.589 -999 -999 -999 -999 -999
2009-06-11 10:26 51°24.929 2°48.412 -999 -999 -999 -999 -999
2009-06-11 10:28 51°24.903 2°48.206 -999 -999 -999 -999 -999
2009-06-11 10:30 51°24.77 2°48.128 -999 -999 -999 -999 -999
2009-06-11 10:32 51°24.648 2°47.942 -999 -999 -999 -999 -999
2009-06-11 10:34 51°24.584 2°47.725 -999 -999 -999 -999 -999
2009-06-11 10:36 51°24.526 2°47.505 -999 -999 -999 -999 -999
2009-06-11 10:38 51°24.467 2°47.32 -999 -999 -999 -999 -999
2009-06-11 10:40 51°24.399 2°47.148 -999 -999 -999 -999 -999
2009-06-11 10:42 51°24.327 2°46.986 -999 -999 -999 -999 -999
2009-06-11 10:44 51°24.258 2°46.826 -999 -999 -999 -999 -999
2009-06-11 10:46 51°24.192 2°46.67 -999 -999 -999 -999 -999
2009-06-11 10:48 51°24.141 2°46.515 -999 -999 -999 -999 -999
2009-06-11 10:50 51°24.113 2°46.351 -999 -999 -999 -999 -999
2009-06-11 10:52 51°24.064 2°46.203 -999 -999 -999 -999 -999
2009-06-11 10:54 51°24.015 2°46.05 -999 -999 -999 -999 -999
2009-06-11 10:56 51°23.966 2°45.888 -999 -999 -999 -999 -999
2009-06-11 10:58 51°23.916 2°45.723 -999 -999 -999 -999 -999
2009-06-11 11:00 51°23.825 2°45.589 -999 -999 -999 -999 -999
2009-06-11 11:02 51°23.723 2°45.485 -999 -999 -999 -999 -999
2009-06-11 11:04 51°23.616 2°45.389 -999 -999 -999 -999 -999
2009-06-11 11:06 51°23.516 2°45.283 -999 -999 -999 -999 -999
2009-06-11 11:08 51°23.434 2°45.151 -999 -999 -999 -999 -999
2009-06-11 11:10 51°23.37 2°45.027 -999 -999 -999 -999 -999
2009-06-11 11:12 51°23.326 2°44.92 -999 -999 -999 -999 -999
2009-06-11 11:14 51°23.423 2°44.916 -999 -999 -999 -999 -999
2009-06-11 11:16 51°23.547 2°45.279 -999 -999 -999 -999 -999
2009-06-11 11:18 51°23.69 2°45.68 -999 -999 -999 -999 -999
2009-06-11 11:20 51°23.856 2°46.059 -999 -999 -999 -999 -999
2009-06-11 11:22 51°24.023 2°46.452 -999 -999 -999 -999 -999
2009-06-11 11:24 51°24.192 2°46.837 -999 -999 -999 -999 -999
2009-06-11 11:26 51°24.359 2°47.224 -999 -999 -999 -999 -999
2009-06-11 11:28 51°24.527 2°47.616 -999 -999 -999 -999 -999
2009-06-11 11:30 51°24.697 2°48 -999 -999 -999 -999 -999
2009-06-11 11:32 51°24.906 2°48.317 -999 -999 -999 -999 -999
2009-06-11 11:34 51°25.019 2°48.275 -999 -999 -999 -999 -999
2009-06-11 11:36 51°25.002 2°48.247 -999 -999 -999 -999 -999
2009-06-11 11:38 51°24.966 2°48.229 -999 -999 -999 -999 -999
2009-06-11 11:40 51°24.93 2°48.209 -999 -999 -999 -999 -999
2009-06-11 11:42 51°24.892 2°48.194 -999 -999 -999 -999 -999
2009-06-11 11:44 51°24.866 2°48.181 -999 -999 -999 -999 -999
2009-06-11 11:46 51°24.965 2°48.256 -999 -999 -999 -999 -999
2009-06-11 11:48 51°25.084 2°48.712 -999 -999 -999 -999 -999
2009-06-11 11:50 51°25.148 2°49.264 -999 -999 -999 -999 -999
2009-06-11 11:52 51°25.113 2°49.834 -999 -999 -999 -999 -999
2009-06-11 11:54 51°25.095 2°50.419 -999 -999 -999 -999 -999
2009-06-11 11:56 51°25.081 2°51.008 -999 -999 -999 -999 -999
2009-06-11 11:58 51°25.079 2°51.59 -999 -999 -999 -999 -999
2009-06-11 13:00 51°26.271 3°10.336 -999 -999 -999 -999 -999
2009-06-11 13:02 51°26.447 3°10.901 -999 -999 -999 -999 -999
2009-06-11 13:04 51°26.691 3°11.374 -999 -999 -999 -999 -999
2009-06-11 13:06 51°26.948 3°11.844 -999 -999 -999 -999 -999
2009-06-11 13:08 51°27.152 3°12.16 -999 -999 -999 -999 -999
2009-06-11 13:10 51°27.162 3°11.995 -999 -999 -999 -999 -999
2009-06-11 13:12 51°27.182 3°11.843 -999 -999 -999 -999 -999
2009-06-11 13:14 51°27.289 3°11.883 -999 -999 -999 -999 -999
2009-06-11 13:16 51°27.377 3°11.982 -999 -999 -999 -999 -999
2009-06-11 13:18 51°27.467 3°12.134 -999 -999 -999 -999 -999
2009-06-11 13:20 51°27.532 3°12.281 -999 -999 -999 -999 -999
2009-06-11 13:22 51°27.579 3°12.416 -999 -999 -999 -999 -999
2009-06-11 13:24 51°27.619 3°12.571 -999 -999 -999 -999 -999
2009-06-11 13:26 51°27.651 3°12.76 -999 -999 -999 -999 -999
2009-06-11 13:28 51°27.683 3°12.954 -999 -999 -999 -999 -999
2009-06-11 13:30 51°27.705 3°13.157 -999 -999 -999 -999 -999
2009-06-11 13:32 51°27.722 3°13.357 -999 -999 -999 -999 -999
2009-06-11 13:34 51°27.73 3°13.549 -999 -999 -999 -999 -999
2009-06-11 13:36 51°27.719 3°13.746 -999 -999 -999 -999 -999
2009-06-11 13:38 51°27.674 3°13.925 -999 -999 -999 -999 -999
2009-06-11 13:40 51°27.606 3°14.056 -999 -999 -999 -999 -999
2009-06-11 13:42 51°27.532 3°14.154 -999 -999 -999 -999 -999
2009-06-11 13:44 51°27.453 3°14.247 -999 -999 -999 -999 -999
2009-06-11 13:46 51°27.355 3°14.299 -999 -999 -999 -999 -999
2009-06-11 13:48 51°27.267 3°14.289 -999 -999 -999 -999 -999
2009-06-11 13:50 51°27.209 3°14.258 -999 -999 -999 -999 -999
2009-06-11 13:52 51°26.996 3°14.201 -999 -999 -999 -999 -999
2009-06-11 13:54 51°26.992 3°14.427 -999 -999 -999 -999 -999
2009-06-11 13:56 51°27.013 3°14.544 -999 -999 -999 -999 -999
2009-06-11 13:58 51°27.028 3°14.649 -999 -999 -999 -999 -999
2009-06-11 14:00 51°27.044 3°14.748 -999 -999 -999 -999 -999
2009-06-11 14:02 51°27.077 3°14.913 -999 -999 -999 -999 -999
2009-06-11 14:04 51°26.873 3°15.096 -999 -999 -999 -999 -999
2009-06-11 14:06 51°26.516 3°15.276 -999 -999 -999 -999 -999
2009-06-11 14:08 51°26.138 3°15.449 -999 -999 -999 -999 -999
2009-06-11 14:10 51°25.761 3°15.607 -999 -999 -999 -999 -999
2009-06-11 14:12 51°25.376 3°15.697 -999 -999 -999 -999 -999
2009-06-11 14:14 51°24.992 3°15.825 -999 -999 -999 -999 -999
2009-06-11 14:16 51°24.639 3°16.163 -999 -999 -999 -999 -999
2009-06-11 14:18 51°24.309 3°16.604 -999 -999 -999 -999 -999
2009-06-11 14:20 51°23.998 3°17.078 -999 -999 -999 -999 -999
2009-06-11 14:22 51°23.694 3°17.565 -999 -999 -999 -999 -999
2009-06-11 14:24 51°23.367 3°18.004 -999 -999 -999 -999 -999
2009-06-11 14:26 51°23.054 3°18.402 -999 -999 -999 -999 -999
2009-06-11 14:28 51°22.862 3°18.696 -999 -999 -999 -999 -999
2009-06-11 14:30 51°22.721 3°18.87 -999 -999 -999 -999 -999
2009-06-11 14:32 51°22.678 3°18.801 -999 -999 -999 -999 -999
2009-06-11 14:34 51°22.634 3°18.685 -999 -999 -999 -999 -999
2009-06-11 14:36 51°22.649 3°18.683 -999 -999 -999 -999 -999
2009-06-11 14:38 51°22.658 3°18.741 -999 -999 -999 -999 -999
2009-06-11 14:40 51°22.66 3°18.812 -999 -999 -999 -999 -999
2009-06-11 14:42 51°22.66 3°18.882 -999 -999 -999 -999 -999
2009-06-11 14:44 51°22.662 3°18.938 -999 -999 -999 -999 -999
2009-06-11 14:46 51°22.666 3°18.988 -999 -999 -999 -999 -999
2009-06-11 14:48 51°22.677 3°19.034 -999 -999 -999 -999 -999
2009-06-11 14:50 51°22.69 3°19.086 -999 -999 -999 -999 -999
2009-06-11 14:52 51°22.706 3°19.156 -999 -999 -999 -999 -999
2009-06-11 14:54 51°22.781 3°19.07 -999 -999 -999 -999 -999
2009-06-11 14:56 51°22.838 3°18.694 -999 -999 -999 -999 -999
2009-06-11 14:58 51°22.875 3°18.215 -999 -999 -999 -999 -999
2009-06-11 15:00 51°22.89 3°17.719 -999 -999 -999 -999 -999
2009-06-11 15:02 51°22.886 3°17.222 -999 -999 -999 -999 -999
2009-06-11 15:04 51°22.857 3°16.718 -999 -999 -999 -999 -999
2009-06-11 15:06 51°22.817 3°16.205 -999 -999 -999 -999 -999
2009-06-11 15:08 51°22.777 3°15.691 -999 -999 -999 -999 -999
2009-06-11 15:10 51°22.739 3°15.176 -999 -999 -999 -999 -999
2009-06-11 15:12 51°22.703 3°14.655 -999 -999 -999 -999 -999
2009-06-11 15:14 51°22.664 3°14.136 -999 -999 -999 -999 -999
2009-06-11 15:16 51°22.629 3°13.655 -999 -999 -999 -999 -999
2009-06-11 15:18 51°22.612 3°13.38 -999 -999 -999 -999 -999
2009-06-11 15:20 51°22.6 3°13.332 -999 -999 -999 -999 -999
2009-06-11 15:22 51°22.565 3°13.338 -999 -999 -999 -999 -999
2009-06-11 15:24 51°22.61 3°13.266 -999 -999 -999 -999 -999
2009-06-11 15:26 51°22.737 3°13.333 -999 -999 -999 -999 -999
2009-06-11 15:28 51°22.839 3°13.395 -999 -999 -999 -999 -999
2009-06-11 15:30 51°22.938 3°13.488 -999 -999 -999 -999 -999
2009-06-11 15:32 51°23.037 3°13.584 -999 -999 -999 -999 -999
2009-06-11 15:34 51°23.137 3°13.674 -999 -999 -999 -999 -999
2009-06-11 15:36 51°23.242 3°13.767 -999 -999 -999 -999 -999
2009-06-11 15:38 51°23.323 3°13.931 -999 -999 -999 -999 -999
2009-06-11 15:40 51°23.365 3°14.113 -999 -999 -999 -999 -999
2009-06-11 15:42 51°23.405 3°14.29 -999 -999 -999 -999 -999
2009-06-11 15:44 51°23.444 3°14.466 -999 -999 -999 -999 -999
2009-06-11 15:46 51°23.48 3°14.648 -999 -999 -999 -999 -999
2009-06-11 15:48 51°23.516 3°14.829 -999 -999 -999 -999 -999
2009-06-11 15:50 51°23.555 3°15.001 -999 -999 -999 -999 -999
2009-06-11 15:52 51°23.591 3°15.17 -999 -999 -999 -999 -999
2009-06-11 15:54 51°23.627 3°15.338 -999 -999 -999 -999 -999
2009-06-11 15:56 51°23.656 3°15.516 -999 -999 -999 -999 -999
2009-06-11 15:58 51°23.639 3°15.709 -999 -999 -999 -999 -999
2009-06-11 16:00 51°23.585 3°15.831 -999 -999 -999 -999 -999
2009-06-11 16:02 51°23.517 3°15.86 -999 -999 -999 -999 -999
2009-06-11 16:04 51°23.368 3°15.529 -999 -999 -999 -999 -999
2009-06-11 16:06 51°23.232 3°15.038 -999 -999 -999 -999 -999
2009-06-11 16:08 51°23.109 3°14.535 -999 -999 -999 -999 -999
2009-06-11 16:10 51°22.982 3°14.026 -999 -999 -999 -999 -999
2009-06-11 16:12 51°22.879 3°13.5 -999 -999 -999 -999 -999
2009-06-11 16:14 51°22.795 3°12.968 -999 -999 -999 -999 -999
2009-06-11 16:16 51°22.697 3°12.443 -999 -999 -999 -999 -999
2009-06-11 16:18 51°22.588 3°11.926 -999 -999 -999 -999 -999
2009-06-11 16:20 51°22.518 3°11.623 -999 -999 -999 -999 -999
2009-06-11 16:22 51°22.501 3°11.435 -999 -999 -999 -999 -999
2009-06-11 16:24 51°22.515 3°11.29 -999 -999 -999 -999 -999
2009-06-11 16:26 51°22.556 3°11.295 -999 -999 -999 -999 -999
2009-06-11 16:28 51°22.59 3°11.341 -999 -999 -999 -999 -999
2009-06-11 16:30 51°22.619 3°11.404 -999 -999 -999 -999 -999
2009-06-11 16:32 51°22.654 3°11.469 -999 -999 -999 -999 -999
2009-06-11 16:34 51°22.697 3°11.526 -999 -999 -999 -999 -999
2009-06-11 16:36 51°22.74 3°11.548 -999 -999 -999 -999 -999
2009-06-11 16:38 51°22.623 3°11.481 -999 -999 -999 -999 -999
2009-06-11 16:40 51°22.47 3°11.365 -999 -999 -999 -999 -999
2009-06-11 16:42 51°22.486 3°11.319 -999 -999 -999 -999 -999
2009-06-11 16:44 51°22.53 3°11.373 -999 -999 -999 -999 -999
2009-06-11 16:46 51°22.563 3°11.458 -999 -999 -999 -999 -999
2009-06-11 16:48 51°22.628 3°11.513 -999 -999 -999 -999 -999
2009-06-11 16:50 51°22.825 3°11.199 -999 -999 -999 -999 -999
2009-06-11 16:52 51°23.045 3°10.728 -999 -999 -999 -999 -999
2009-06-11 16:54 51°23.141 3°10.191 -999 -999 -999 -999 -999
2009-06-11 16:56 51°22.989 3°9.71 -999 -999 -999 -999 -999
2009-06-11 16:58 51°22.752 3°9.317 -999 -999 -999 -999 -999
2009-06-11 17:00 51°22.488 3°8.98 -999 -999 -999 -999 -999
2009-06-11 17:02 51°22.211 3°8.652 -999 -999 -999 -999 -999
2009-06-11 17:04 51°21.943 3°8.317 -999 -999 -999 -999 -999
2009-06-11 17:06 51°21.696 3°7.947 -999 -999 -999 -999 -999
2009-06-11 17:08 51°21.455 3°7.566 -999 -999 -999 -999 -999
2009-06-11 17:10 51°21.197 3°7.21 -999 -999 -999 -999 -999
2009-06-11 17:12 51°20.943 3°6.866 -999 -999 -999 -999 -999
2009-06-11 17:14 51°20.687 3°6.514 -999 -999 -999 -999 -999
2009-06-11 17:16 51°20.419 3°6.176 -999 -999 -999 -999 -999
2009-06-11 17:18 51°20.156 3°5.844 -999 -999 -999 -999 -999
2009-06-11 17:20 51°19.9 3°5.511 -999 -999 -999 -999 -999
2009-06-11 17:22 51°19.654 3°5.146 -999 -999 -999 -999 -999
2009-06-11 17:24 51°19.418 3°4.755 -999 -999 -999 -999 -999
2009-06-11 17:26 51°19.193 3°4.346 -999 -999 -999 -999 -999
2009-06-11 17:28 51°18.981 3°3.908 -999 -999 -999 -999 -999
2009-06-11 17:30 51°18.778 3°3.471 -999 -999 -999 -999 -999
2009-06-11 17:32 51°18.572 3°3.035 -999 -999 -999 -999 -999
2009-06-11 17:34 51°18.364 3°2.593 -999 -999 -999 -999 -999
2009-06-11 17:36 51°18.166 3°2.14 -999 -999 -999 -999 -999
2009-06-11 17:38 51°17.979 3°1.687 -999 -999 -999 -999 -999
2009-06-11 17:40 51°17.797 3°1.224 -999 -999 -999 -999 -999
2009-06-11 17:42 51°17.617 3°0.759 -999 -999 -999 -999 -999
2009-06-11 17:44 51°17.425 3°0.302 -999 -999 -999 -999 -999
2009-06-11 17:46 51°17.232 2°59.852 -999 -999 -999 -999 -999
2009-06-11 17:48 51°17.028 2°59.409 -999 -999 -999 -999 -999
2009-06-11 17:50 51°16.846 2°58.942 -999 -999 -999 -999 -999
2009-06-11 17:52 51°16.671 2°58.455 -999 -999 -999 -999 -999
2009-06-11 17:54 51°16.496 2°57.961 -999 -999 -999 -999 -999
2009-06-11 17:56 51°16.318 2°57.463 -999 -999 -999 -999 -999
2009-06-11 17:58 51°16.136 2°56.971 -999 -999 -999 -999 -999
2009-06-11 18:00 51°15.937 2°56.494 -999 -999 -999 -999 -999
2009-06-11 18:02 51°15.729 2°56.036 -999 -999 -999 -999 -999
2009-06-11 18:04 51°15.526 2°55.59 -999 -999 -999 -999 -999
2009-06-11 18:06 51°15.325 2°55.144 -999 -999 -999 -999 -999
2009-06-11 18:08 51°15.085 2°54.766 -999 -999 -999 -999 -999
2009-06-11 18:10 51°14.745 2°54.64 -999 -999 -999 -999 -999
2009-06-11 18:12 51°14.423 2°54.929 -999 -999 -999 -999 -999
2009-06-11 18:14 51°14.197 2°55.351 -999 -999 -999 -999 -999
2009-06-11 18:16 51°13.965 2°55.536 -999 -999 -999 -999 -999
2009-06-11 18:18 51°13.745 2°55.733 -999 -999 -999 -999 -999
2009-06-11 18:20 51°13.665 2°55.934 -999 -999 -999 -999 -999
2009-06-11 18:22 51°13.661 2°55.959 -999 -999 -999 -999 -999
2009-06-11 18:24 51°13.663 2°55.961 -999 -999 -999 -999 -999
2009-06-11 18:26 51°13.662 2°55.961 -999 -999 -999 -999 -999
2009-06-11 18:28 51°13.679 2°55.896 -999 -999 -999 -999 -999
2009-06-11 18:30 51°13.697 2°55.794 -999 -999 -999 -999 -999
2009-06-11 18:32 51°13.699 2°55.767 -999 -999 -999 -999 -999
2009-06-11 18:34 51°13.823 2°55.641 -999 -999 -999 -999 -999
2009-06-11 18:36 51°14.09 2°55.437 -999 -999 -999 -999 -999
2009-06-11 18:38 51°14.346 2°55.104 -999 -999 -999 -999 -999
2009-06-11 18:40 51°14.413 2°54.684 -999 -999 -999 -999 -999
2009-06-11 18:42 51°14.367 2°54.508 -999 -999 -999 -999 -999
2009-06-11 18:44 51°14.18 2°54.076 -999 -999 -999 -999 -999
2009-06-11 18:46 51°13.991 2°53.572 -999 -999 -999 -999 -999
2009-06-11 18:48 51°13.804 2°53.066 -999 -999 -999 -999 -999
2009-06-11 18:50 51°13.616 2°52.56 -999 -999 -999 -999 -999
2009-06-11 18:52 51°13.427 2°52.056 -999 -999 -999 -999 -999
2009-06-11 18:54 51°13.237 2°51.543 -999 -999 -999 -999 -999
2009-06-11 18:56 51°13.044 2°51.032 -999 -999 -999 -999 -999
2009-06-11 18:58 51°12.869 2°50.498 -999 -999 -999 -999 -999
2009-06-11 19:00 51°12.701 2°49.943 -999 -999 -999 -999 -999
2009-06-11 19:02 51°12.525 2°49.395 -999 -999 -999 -999 -999
2009-06-11 19:04 51°12.358 2°48.838 -999 -999 -999 -999 -999
2009-06-11 19:06 51°12.206 2°48.276 -999 -999 -999 -999 -999
2009-06-11 19:08 51°12.052 2°47.709 -999 -999 -999 -999 -999
2009-06-11 19:10 51°11.901 2°47.137 -999 -999 -999 -999 -999
2009-06-11 19:12 51°11.748 2°46.565 -999 -999 -999 -999 -999
2009-06-11 19:14 51°11.591 2°45.996 -999 -999 -999 -999 -999
2009-06-11 19:16 51°11.438 2°45.416 -999 -999 -999 -999 -999
2009-06-11 19:18 51°11.291 2°45.018 -999 -999 -999 -999 -999
2009-06-11 19:20 51°11.19 2°44.949 -999 -999 -999 -999 -999
2009-06-11 19:22 51°11.154 2°44.743 -999 -999 -999 -999 -999
2009-06-11 19:24 51°11.187 2°44.679 -999 -999 -999 -999 -999
2009-06-11 19:26 51°11.196 2°44.673 -999 -999 -999 -999 -999
2009-06-11 19:28 51°11.192 2°44.679 -999 -999 -999 -999 -999
2009-06-11 19:30 51°11.184 2°44.687 -999 -999 -999 -999 -999
2009-06-11 19:32 51°11.178 2°44.697 -999 -999 -999 -999 -999
2009-06-11 19:34 51°11.175 2°44.706 -999 -999 -999 -999 -999
2009-06-11 19:36 51°11.177 2°44.713 -999 -999 -999 -999 -999
2009-06-11 19:38 51°11.179 2°44.717 -999 -999 -999 -999 -999
2009-06-11 19:40 51°11.182 2°44.721 -999 -999 -999 -999 -999
2009-06-11 19:42 51°11.183 2°44.724 -999 -999 -999 -999 -999
2009-06-11 19:44 51°11.184 2°44.727 -999 -999 -999 -999 -999
2009-06-11 19:46 51°11.184 2°44.727 -999 -999 -999 -999 -999
2009-06-11 19:48 51°11.183 2°44.725 -999 -999 -999 -999 -999
2009-06-11 19:50 51°11.179 2°44.72 -999 -999 -999 -999 -999
2009-06-11 19:52 51°11.177 2°44.713 -999 -999 -999 -999 -999
2009-06-11 19:54 51°11.175 2°44.706 -999 -999 -999 -999 -999
2009-06-11 19:56 51°11.175 2°44.698 -999 -999 -999 -999 -999
2009-06-11 19:58 51°11.178 2°44.684 -999 -999 -999 -999 -999
2009-06-11 20:00 51°11.181 2°44.667 -999 -999 -999 -999 -999
2009-06-11 20:02 51°11.185 2°44.656 -999 -999 -999 -999 -999
2009-06-11 20:04 51°11.192 2°44.643 -999 -999 -999 -999 -999
2009-06-11 20:06 51°11.195 2°44.632 -999 -999 -999 -999 -999
2009-06-11 20:08 51°11.197 2°44.627 -999 -999 -999 -999 -999
2009-06-11 20:10 51°11.205 2°44.628 -999 -999 -999 -999 -999
2009-06-11 20:12 51°11.212 2°44.632 -999 -999 -999 -999 -999
2009-06-11 20:14 51°11.214 2°44.633 -999 -999 -999 -999 -999
2009-06-11 20:16 51°11.214 2°44.633 -999 -999 -999 -999 -999
2009-06-11 20:18 51°11.214 2°44.632 -999 -999 -999 -999 -999
2009-06-11 20:20 51°11.213 2°44.631 -999 -999 -999 -999 -999
2009-06-11 20:22 51°11.212 2°44.631 -999 -999 -999 -999 -999
2009-06-11 20:24 51°11.212 2°44.631 -999 -999 -999 -999 -999
2009-06-11 20:26 51°11.211 2°44.631 -999 -999 -999 -999 -999
2009-06-11 20:28 51°11.21 2°44.63 -999 -999 -999 -999 -999
2009-06-11 20:30 51°11.209 2°44.629 -999 -999 -999 -999 -999
2009-06-11 20:32 51°11.21 2°44.631 -999 -999 -999 -999 -999
2009-06-11 20:34 51°11.209 2°44.63 -999 -999 -999 -999 -999
2009-06-11 20:36 51°11.209 2°44.649 -999 -999 -999 -999 -999
2009-06-11 20:38 51°11.207 2°44.666 -999 -999 -999 -999 -999
2009-06-11 20:40 51°11.202 2°44.655 -999 -999 -999 -999 -999
2009-06-11 20:42 51°11.196 2°44.636 -999 -999 -999 -999 -999
2009-06-11 20:44 51°11.185 2°44.622 -999 -999 -999 -999 -999
2009-06-11 20:46 51°11.169 2°44.61 -999 -999 -999 -999 -999
2009-06-11 20:48 51°11.152 2°44.602 -999 -999 -999 -999 -999
2009-06-11 20:50 51°11.21 2°44.65 -999 -999 -999 -999 -999
2009-06-11 20:52 51°11.263 2°44.845 -999 -999 -999 -999 -999
2009-06-11 20:54 51°11.295 2°45.063 -999 -999 -999 -999 -999
2009-06-11 20:56 51°11.37 2°45.332 -999 -999 -999 -999 -999
2009-06-11 20:58 51°11.455 2°45.677 -999 -999 -999 -999 -999
2009-06-11 21:00 51°11.55 2°46.039 -999 -999 -999 -999 -999
2009-06-11 21:02 51°11.662 2°46.386 -999 -999 -999 -999 -999
2009-06-11 21:04 51°11.778 2°46.727 -999 -999 -999 -999 -999
2009-06-11 21:06 51°11.889 2°47.062 -999 -999 -999 -999 -999
2009-06-11 21:08 51°11.999 2°47.39 -999 -999 -999 -999 -999
2009-06-11 21:10 51°12.104 2°47.718 -999 -999 -999 -999 -999
2009-06-11 21:12 51°12.209 2°48.049 -999 -999 -999 -999 -999
2009-06-11 21:14 51°12.324 2°48.376 -999 -999 -999 -999 -999
2009-06-11 21:16 51°12.465 2°48.681 -999 -999 -999 -999 -999
2009-06-11 21:18 51°12.547 2°49.025 -999 -999 -999 -999 -999
2009-06-11 21:20 51°12.69 2°49.327 -999 -999 -999 -999 -999
2009-06-11 21:22 51°12.802 2°49.657 -999 -999 -999 -999 -999
2009-06-11 21:24 51°12.929 2°49.976 -999 -999 -999 -999 -999
2009-06-11 21:26 51°13.052 2°50.302 -999 -999 -999 -999 -999
2009-06-11 21:28 51°13.178 2°50.626 -999 -999 -999 -999 -999
2009-06-11 21:30 51°13.303 2°50.954 -999 -999 -999 -999 -999
2009-06-11 21:32 51°13.428 2°51.284 -999 -999 -999 -999 -999
2009-06-11 21:34 51°13.553 2°51.612 -999 -999 -999 -999 -999
2009-06-11 21:36 51°13.682 2°51.941 -999 -999 -999 -999 -999
2009-06-11 21:38 51°13.799 2°52.279 -999 -999 -999 -999 -999
2009-06-11 21:40 51°13.917 2°52.614 -999 -999 -999 -999 -999
2009-06-11 21:42 51°14.023 2°52.9 -999 -999 -999 -999 -999
2009-06-11 21:44 51°14.059 2°53.099 -999 -999 -999 -999 -999
2009-06-11 21:46 51°14.107 2°53.264 -999 -999 -999 -999 -999
2009-06-11 21:48 51°14.163 2°53.365 -999 -999 -999 -999 -999
2009-06-11 21:50 51°14.173 2°53.482 -999 -999 -999 -999 -999
2009-06-11 21:52 51°14.218 2°53.638 -999 -999 -999 -999 -999
2009-06-11 21:54 51°14.29 2°53.898 -999 -999 -999 -999 -999
2009-06-11 21:56 51°14.363 2°54.177 -999 -999 -999 -999 -999
2009-06-11 21:58 51°14.436 2°54.458 -999 -999 -999 -999 -999
2009-06-11 22:00 51°14.437 2°54.764 -999 -999 -999 -999 -999
2009-06-11 22:02 51°14.36 2°55.046 -999 -999 -999 -999 -999
2009-06-11 22:04 51°14.25 2°55.279 -999 -999 -999 -999 -999
2009-06-11 22:06 51°14.153 2°55.387 -999 -999 -999 -999 -999
2009-06-11 22:08 51°14.067 2°55.45 -999 -999 -999 -999 -999
2009-06-11 22:10 51°13.983 2°55.521 -999 -999 -999 -999 -999
2009-06-11 22:12 51°13.896 2°55.575 -999 -999 -999 -999 -999
2009-06-11 22:14 51°13.815 2°55.631 -999 -999 -999 -999 -999
2009-06-11 22:16 51°13.752 2°55.72 -999 -999 -999 -999 -999
2009-06-11 22:18 51°13.707 2°55.813 -999 -999 -999 -999 -999
2009-06-11 22:20 51°13.672 2°55.902 -999 -999 -999 -999 -999
2009-06-11 22:22 51°13.659 2°55.95 -999 -999 -999 -999 -999
2009-06-11 22:24 51°13.656 2°55.964 -999 -999 -999 -999 -999
2009-06-11 22:26 51°13.658 2°55.967 -999 -999 -999 -999 -999
2009-06-11 22:28 51°13.661 2°55.96 -999 -999 -999 -999 -999
2009-06-11 22:30 51°13.663 2°55.959 -999 -999 -999 -999 -999
2009-06-11 22:32 51°13.663 2°55.959 -999 -999 -999 -999 -999
2009-06-11 22:34 51°13.663 2°55.959 -999 -999 -999 -999 -999
2009-06-11 22:36 51°13.663 2°55.959 -999 -999 -999 -999 -999
2009-06-11 22:38 51°13.663 2°55.959 -999 -999 -999 -999 -999
2009-06-11 22:40 51°13.664 2°55.959 -999 -999 -999 -999 -999
2009-06-11 22:42 51°13.664 2°55.959 -999 -999 -999 -999 -999
2009-06-11 22:44 51°13.66 2°55.959 -999 -999 -999 -999 -999
2009-06-11 22:46 51°13.662 2°55.96 -999 -999 -999 -999 -999
2009-06-11 22:48 51°13.663 2°55.96 -999 -999 -999 -999 -999
2009-06-11 22:50 51°13.663 2°55.96 -999 -999 -999 -999 -999
2009-06-11 22:52 51°13.663 2°55.96 -999 -999 -999 -999 -999
2009-06-11 22:54 51°13.664 2°55.959 -999 -999 -999 -999 -999
2009-06-11 22:56 51°13.663 2°55.959 -999 -999 -999 -999 -999
2009-06-11 22:58 51°13.664 2°55.96 -999 -999 -999 -999 -999
2009-06-11 23:00 51°13.662 2°55.959 -999 -999 -999 -999 -999
2009-06-11 23:02 51°13.662 2°55.959 -999 -999 -999 -999 -999
2009-06-11 23:04 51°13.663 2°55.96 -999 -999 -999 -999 -999
2009-06-11 23:06 51°13.663 2°55.96 -999 -999 -999 -999 -999
2009-06-11 23:08 51°13.663 2°55.961 -999 -999 -999 -999 -999
2009-06-11 23:10 51°13.663 2°55.96 -999 -999 -999 -999 -999
2009-06-11 23:12 51°13.664 2°55.959 -999 -999 -999 -999 -999
2009-06-11 23:14 51°13.665 2°55.959 -999 -999 -999 -999 -999
2009-06-11 23:16 51°13.664 2°55.959 -999 -999 -999 -999 -999
2009-06-11 23:18 51°13.665 2°55.959 -999 -999 -999 -999 -999
2009-06-11 23:20 51°13.665 2°55.959 -999 -999 -999 -999 -999
2009-06-11 23:22 51°13.664 2°55.959 -999 -999 -999 -999 -999
2009-06-11 23:24 51°13.664 2°55.959 -999 -999 -999 -999 -999
2009-06-11 23:26 51°13.664 2°55.96 -999 -999 -999 -999 -999
2009-06-11 23:28 51°13.664 2°55.96 -999 -999 -999 -999 -999
2009-06-11 23:30 51°13.664 2°55.96 -999 -999 -999 -999 -999
2009-06-11 23:32 51°13.664 2°55.959 -999 -999 -999 -999 -999
2009-06-11 23:34 51°13.663 2°55.959 -999 -999 -999 -999 -999
2009-06-11 23:36 51°13.664 2°55.959 -999 -999 -999 -999 -999
2009-06-11 23:38 51°13.664 2°55.959 -999 -999 -999 -999 -999
2009-06-11 23:40 51°13.664 2°55.959 -999 -999 -999 -999 -999
2009-06-11 23:42 51°13.664 2°55.959 -999 -999 -999 -999 -999
2009-06-11 23:44 51°13.664 2°55.96 -999 -999 -999 -999 -999
2009-06-11 23:46 51°13.664 2°55.96 -999 -999 -999 -999 -999
2009-06-11 23:48 51°13.663 2°55.959 -999 -999 -999 -999 -999
2009-06-11 23:50 51°13.663 2°55.959 -999 -999 -999 -999 -999
2009-06-11 23:52 51°13.664 2°55.959 -999 -999 -999 -999 -999
2009-06-11 23:54 51°13.663 2°55.958 -999 -999 -999 -999 -999
2009-06-11 23:56 51°13.663 2°55.958 -999 -999 -999 -999 -999
2009-06-11 23:58 51°13.663 2°55.958 -999 -999 -999 -999 -999